| time (UTC) | temp C | wind direction | speed KPH | gust KPH | rain 1hr cm | rain 24hr cm | rain mn cm | humidity % | barometer mb |
| 20260502214543 | 13 | 77 | 0.0 | 3.2 | 0.00 | 0.00 | 0.00 | 53 | 1016.9 |
| 20260502213030 | 13 | 63 | 0.0 | 0.0 | 0.00 | 0.00 | 0.00 | 52 | 1016.9 |
| 20260502211608 | 14 | 63 | 0.0 | 0.0 | 0.00 | 0.00 | 0.00 | 50 | 1016.8 |
| 20260502210032 | 15 | 63 | 0.0 | 0.0 | 0.00 | 0.00 | 0.00 | 48 | 1016.9 |
| 20260502204618 | 15 | 65 | 0.0 | 0.0 | 0.00 | 0.00 | 0.00 | 47 | 1016.9 |
| 20260502203028 | 16 | 66 | 0.0 | 0.0 | 0.00 | 0.00 | 0.00 | 44 | 1016.9 |
| 20260502201547 | 16 | 67 | 0.0 | 0.0 | 0.00 | 0.00 | 0.00 | 43 | 1017.0 |
| 20260502200034 | 17 | 67 | 0.0 | 1.6 | 0.00 | 0.00 | 0.00 | 41 | 1017.1 |
| 20260502194547 | 18 | 67 | 0.0 | 0.0 | 0.00 | 0.00 | 0.00 | 39 | 1017.1 |
| 20260502193056 | 18 | 65 | 0.0 | 3.2 | 0.00 | 0.00 | 0.00 | 37 | 1017.1 |
| 20260502191515 | 19 | 65 | 0.0 | 0.0 | 0.00 | 0.00 | 0.00 | 36 | 1016.9 |
| 20260502190015 | 20 | 62 | 1.6 | 6.4 | 0.00 | 0.00 | 0.00 | 35 | 1016.9 |
| 20260502184556 | 20 | 63 | 1.6 | 4.8 | 0.00 | 0.00 | 0.00 | 34 | 1017.0 |
| 20260502183102 | 21 | 74 | 1.6 | 8.0 | 0.00 | 0.00 | 0.00 | 33 | 1017.0 |
| 20260502181506 | 22 | 63 | 0.0 | 6.4 | 0.00 | 0.00 | 0.00 | 32 | 1016.9 |
| 20260502180121 | 22 | 77 | 1.6 | 9.7 | 0.00 | 0.00 | 0.00 | 30 | 1016.9 |
| 20260502170110 | 23 | 130 | 0.0 | 12.9 | 0.00 | 0.00 | 0.00 | 25 | 1017.2 |
| 20260502163051 | 24 | 124 | 1.6 | 14.5 | 0.00 | 0.00 | 0.00 | 26 | 1017.4 |
| 20260502161542 | 24 | 67 | 1.6 | 12.9 | 0.00 | 0.00 | 0.00 | 25 | 1017.7 |
| 20260502151554 | 24 | 59 | 0.0 | 11.3 | 0.00 | 0.00 | 0.00 | 22 | 1018.3 |
| 20260502123054 | 23 | 142 | 3.2 | 11.3 | 0.00 | 0.00 | 0.00 | 25 | 1020.6 |
| 20260502121555 | 23 | 110 | 0.0 | 12.9 | 0.00 | 0.00 | 0.00 | 25 | 1020.8 |
| 20260502114526 | 23 | 231 | 0.0 | 11.3 | 0.00 | 0.00 | 0.00 | 28 | 1021.3 |
| 20260502113039 | 22 | 180 | 1.6 | 9.7 | 0.00 | 0.00 | 0.00 | 28 | 1021.5 |
| 20260502111608 | 22 | 152 | 1.6 | 11.3 | 0.00 | 0.00 | 0.00 | 27 | 1021.6 |
| 20260502110003 | 22 | 98 | 3.2 | 14.5 | 0.00 | 0.00 | 0.00 | 30 | 1021.9 |
| 20260502104502 | 22 | 23 | 4.8 | 12.9 | 0.00 | 0.00 | 0.00 | 30 | 1022.0 |
| 20260502103111 | 22 | 340 | 1.6 | 6.4 | 0.00 | 0.00 | 0.00 | 32 | 1022.2 |
| 20260502101610 | 21 | 276 | 4.8 | 12.9 | 0.00 | 0.00 | 0.00 | 36 | 1022.5 |
| 20260502100109 | 21 | 239 | 0.0 | 9.7 | 0.00 | 0.00 | 0.00 | 37 | 1022.7 |
| 20260502070047 | 13 | 182 | 0.0 | 6.4 | 0.00 | 0.00 | 0.00 | 60 | 1024.3 |
| 20260502064537 | 12 | 175 | 1.6 | 9.7 | 0.00 | 0.00 | 0.00 | 66 | 1024.5 |
| 20260502063003 | 10 | 211 | 3.2 | 8.0 | 0.00 | 0.00 | 0.00 | 70 | 1024.6 |
| 20260502061513 | 8 | 236 | 1.6 | 6.4 | 0.00 | 0.00 | 0.00 | 77 | 1024.5 |
| 20260502060020 | 7 | 206 | 4.8 | 11.3 | 0.00 | 0.00 | 0.00 | 80 | 1024.6 |
| 20260502054542 | 7 | 209 | 1.6 | 9.7 | 0.00 | 0.00 | 0.00 | 81 | 1024.6 |
| 20260502053109 | 6 | 217 | 0.0 | 6.4 | 0.00 | 0.00 | 0.00 | 83 | 1024.6 |
| 20260502051537 | 6 | 230 | 1.6 | 6.4 | 0.00 | 0.00 | 0.00 | 84 | 1024.6 |
| 20260502050053 | 6 | 209 | 0.0 | 3.2 | 0.00 | 0.00 | 0.00 | 84 | 1024.5 |
| 20260502044541 | 6 | 198 | 0.0 | 4.8 | 0.00 | 0.00 | 0.00 | 84 | 1024.4 |
| 20260502043005 | 6 | 196 | 0.0 | 4.8 | 0.00 | 0.00 | 0.00 | 84 | 1024.3 |
| 20260502041608 | 6 | 188 | 0.0 | 6.4 | 0.00 | 0.00 | 0.00 | 84 | 1024.4 |
| 20260502040017 | 6 | 189 | 0.0 | 6.4 | 0.00 | 0.00 | 0.00 | 83 | 1024.4 |
| 20260502034542 | 6 | 179 | 0.0 | 3.2 | 0.00 | 0.00 | 0.00 | 83 | 1024.4 |
| 20260502033008 | 6 | 235 | 0.0 | 6.4 | 0.00 | 0.00 | 0.00 | 82 | 1024.5 |
| 20260502031518 | 6 | 201 | 0.0 | 9.7 | 0.00 | 0.00 | 0.00 | 82 | 1024.4 |
| 20260502030009 | 6 | 213 | 1.6 | 6.4 | 0.00 | 0.00 | 0.00 | 82 | 1024.5 |
| 20260502024553 | 6 | 173 | 1.6 | 6.4 | 0.00 | 0.00 | 0.00 | 82 | 1024.5 |
| 20260502023033 | 7 | 217 | 0.0 | 4.8 | 0.00 | 0.00 | 0.00 | 81 | 1024.5 |
| 20260502021600 | 7 | 220 | 0.0 | 3.2 | 0.00 | 0.00 | 0.00 | 80 | 1024.5 |
| 20260502020044 | 7 | 220 | 0.0 | 1.6 | 0.00 | 0.00 | 0.00 | 79 | 1024.5 |
| 20260502014502 | 7 | 220 | 0.0 | 8.0 | 0.00 | 0.00 | 0.00 | 79 | 1024.6 |
| 20260502013048 | 7 | 237 | 0.0 | 0.0 | 0.00 | 0.00 | 0.00 | 78 | 1024.7 |
| 20260502011544 | 7 | 237 | 0.0 | 0.0 | 0.00 | 0.00 | 0.00 | 77 | 1024.8 |
| 20260502004503 | 8 | 237 | 0.0 | 4.8 | 0.00 | 0.00 | 0.00 | 76 | 1024.9 |
| 20260502003054 | 8 | 232 | 0.0 | 6.4 | 0.00 | 0.00 | 0.00 | 75 | 1025.0 |
| 20260502001548 | 8 | 232 | 0.0 | 4.8 | 0.00 | 0.00 | 0.00 | 74 | 1025.0 |
| 20260502000014 | 9 | 232 | 3.2 | 8.0 | 0.00 | 0.00 | 0.00 | 74 | 1025.0 |
| 20260501234532 | 9 | 219 | 0.0 | 4.8 | 0.00 | 0.00 | 0.00 | 72 | 1025.1 |
| 20260501233105 | 10 | 219 | 0.0 | 4.8 | 0.00 | 0.00 | 0.00 | 71 | 1025.2 |
| 20260501231510 | 10 | 221 | 0.0 | 6.4 | 0.00 | 0.00 | 0.00 | 70 | 1025.1 |
| 20260501230110 | 10 | 223 | 0.0 | 3.2 | 0.00 | 0.00 | 0.00 | 69 | 1025.2 |
| 20260501224538 | 10 | 270 | 0.0 | 0.0 | 0.00 | 0.00 | 0.00 | 68 | 1025.2 |
| 20260501223024 | 11 | 269 | 0.0 | 0.0 | 0.00 | 0.00 | 0.00 | 68 | 1025.3 |
| 20260501221538 | 11 | 269 | 0.0 | 4.8 | 0.00 | 0.00 | 0.00 | 67 | 1025.3 |
| 20260501220028 | 11 | 269 | 0.0 | 4.8 | 0.00 | 0.00 | 0.00 | 66 | 1025.3 |